sat.trackr.live / text

‹ back to catalog

STARLINK-31855

NORAD 59838 · 2024-097D

PAYLOAD ACTIVE UNKNOWN

§ Identity

Operator
Country
US
Launch date
2024-05-23
Launch site
AFETR
Launch vehicle
Mass (kg)
RCS (m²)

Purposes: comms

External: N2YO · Heavens-Above · Gunter

§ Orbital elements

Epoch: 2026-09-21T00:33:17.308800Z

Period
94.27 min
Inclination
43.0025°
Eccentricity
0.0001415
Mean motion
15.27582774 rev/d
Perigee alt
482.1 km
Apogee alt
484.0 km
Semi-major
6,861.2 km
B*
3.2444e-4
RAAN
250.9462°
Arg perigee
263.0784°
Mean anomaly
96.9907°
Rev number
13,179

§ Raw data

STARLINK-318551 59838U 24097D   26264.02311700  .00008677  00000+0  32444-3 0  99962 59838  43.0025 250.9462 0001415 263.0784  96.9907 15.27582774131797

JSON: /api/v1/satellites/59838 · /tle

For live sub-satellite position, see the globe view (requires WebGL).

§ Visibility from observer

Set your observer location to see the next 7 days of passes ≥ 10°. The values pass through the URL so the page stays shareable.

No JS? Fill the form by hand. The geolocation button needs JavaScript.